2021/01/25 23:29:55+0000,-39.90,-47.89,-32.77,-49.06,-55.99,-55.74
2021/01/25 23:30:47+0000,-39.52,-47.48,-33.36,-49.50,-55.86,-55.91
2021/01/25 23:31:47+0000,-39.70,-50.28,-32.90,-48.72,-55.94,-55.86
2021/01/25 23:32:39+0000,-40.16,-49.79,-33.31,-48.48,-56.14,-55.23
2021/01/25 23:33:31+0000,-39.85,-47.07,-33.92,-48.53,-56.19,-55.73
2021/01/25 23:34:23+0000,-40.39,-48.29,-33.64,-49.01,-55.68,-55.61
2021/01/25 23:35:15+0000,-39.86,-49.45,-33.74,-50.39,-55.53,-55.74
2021/01/25 23:36:07+0000,-40.03,-50.45,-33.14,-49.69,-53.87,-55.75
2021/01/25 23:36:59+0000,-39.34,-41.36,-33.71,-47.49,-54.74,-55.55
2021/01/25 23:37:52+0000,-39.61,-50.35,-33.17,-48.80,-54.60,-55.93
2021/01/25 23:38:44+0000,-39.07,-48.10,-33.55,-48.98,-55.08,-56.00
2021/01/25 23:39:36+0000,-39.33,-47.22,-32.92,-50.05,-56.19,-56.12
2021/01/25 23:40:28+0000,-39.24,-45.72,-33.71,-48.71,-56.14,-55.39
2021/01/25 23:41:28+0000,-39.29,-47.77,-33.82,-49.47,-55.49,-55.86
2021/01/25 23:42:20+0000,-39.17,-49.52,-33.90,-52.59,-54.86,-55.62
2021/01/25 23:43:13+0000,-39.94,-49.44,-34.51,-49.77,-55.40,-56.03
2021/01/25 23:44:05+0000,-40.14,-48.01,-33.23,-52.69,-55.64,-55.53
2021/01/25 23:44:57+0000,-39.14,-49.09,-34.09,-48.62,-55.71,-55.77
2021/01/25 23:45:49+0000,-39.46,-47.93,-33.84,-51.98,-56.52,-55.93
2021/01/25 23:46:41+0000,-39.97,-48.88,-33.72,-47.13,-55.06,-55.98
2021/01/25 23:47:33+0000,-39.50,-45.64,-33.16,-50.25,-56.02,-55.32
2021/01/25 23:48:25+0000,-38.68,-47.49,-34.02,-49.15,-56.19,-56.13
2021/01/25 23:49:17+0000,-39.78,-46.97,-33.78,-48.61,-55.38,-55.79
2021/01/25 23:50:09+0000,-39.64,-48.93,-33.69,-49.01,-56.76,-56.10
2021/01/25 23:51:09+0000,-39.47,-49.64,-33.09,-48.67,-55.44,-55.31
2021/01/25 23:52:01+0000,-39.52,-46.99,-34.01,-47.65,-55.62,-55.86
2021/01/25 23:52:53+0000,-39.26,-49.82,-33.84,-49.37,-57.03,-55.41
2021/01/25 23:53:45+0000,-39.23,-49.30,-34.07,-48.40,-56.01,-55.69
2021/01/25 23:54:37+0000,-39.48,-49.80,-33.13,-49.69,-55.96,-55.71
2021/01/25 23:55:29+0000,-40.42,-46.99,-33.59,-49.62,-56.00,-55.94
2021/01/25 23:56:21+0000,-39.33,-50.15,-33.18,-49.79,-56.35,-56.26
2021/01/25 23:57:13+0000,-39.32,-48.22,-33.33,-48.61,-56.13,-56.11
2021/01/25 23:58:05+0000,-39.31,-45.59,-32.69,-52.26,-56.33,-55.90
2021/01/25 23:58:57+0000,-39.42,-46.05,-33.04,-49.41,-56.14,-55.82
2021/01/25 23:59:50+0000,-39.63,-49.37,-32.98,-52.41,-55.90,-56.16
2021/01/26 00:00:45+0000,-39.51,-48.47,-33.25,-47.76,-55.74,-56.17
2021/01/26 00:01:52+0000,-39.51,-49.16,-32.71,-47.80,-57.05,-56.45
2021/01/26 00:02:44+0000,-39.68,-47.68,-33.18,-48.77,-56.67,-56.04
2021/01/26 00:03:36+0000,-39.84,-48.59,-32.72,-49.54,-56.04,-55.75
2021/01/26 00:04:28+0000,-39.25,-47.89,-33.57,-45.02,-56.62,-55.93
2021/01/26 00:05:20+0000,-39.25,-49.48,-33.49,-49.14,-56.58,-55.54
2021/01/26 00:06:12+0000,-39.14,-48.89,-33.80,-48.78,-56.66,-55.87
2021/01/26 00:07:04+0000,-39.92,-48.67,-33.63,-52.06,-56.46,-56.34
2021/01/26 00:07:56+0000,-39.73,-48.16,-33.08,-48.26,-56.72,-55.57
2021/01/26 00:08:48+0000,-38.96,-49.30,-32.60,-51.78,-56.54,-56.12
2021/01/26 00:09:40+0000,-39.63,-49.21,-34.55,-48.65,-56.23,-56.03
2021/01/26 00:10:32+0000,-39.56,-48.61,-34.56,-51.74,-56.47,-56.10
2021/01/26 00:11:32+0000,-39.04,-47.84,-33.72,-52.51,-56.76,-55.84
2021/01/26 00:12:24+0000,-39.05,-48.20,-34.17,-48.91,-56.47,-55.36
2021/01/26 00:13:16+0000,-39.35,-48.13,-34.04,-49.78,-55.94,-56.11
2021/01/26 00:14:08+0000,-39.77,-49.27,-34.03,-49.53,-55.74,-55.93
2021/01/26 00:15:00+0000,-40.08,-47.49,-35.06,-48.52,-56.62,-56.01
2021/01/26 00:15:52+0000,-39.72,-48.62,-33.75,-48.02,-56.43,-56.11
2021/01/26 00:16:44+0000,-40.67,-48.81,-33.83,-50.37,-56.90,-55.85
2021/01/26 00:17:36+0000,-40.56,-48.88,-34.32,-50.71,-57.02,-55.53
2021/01/26 00:18:28+0000,-40.33,-47.85,-34.38,-47.20,-56.28,-56.19
2021/01/26 00:19:21+0000,-40.42,-49.63,-34.65,-47.98,-56.30,-56.19
2021/01/26 00:20:13+0000,-41.13,-48.79,-34.30,-49.56,-56.42,-55.69
2021/01/26 00:21:13+0000,-40.82,-47.46,-34.59,-49.63,-56.60,-55.18
2021/01/26 00:22:05+0000,-40.30,-48.33,-34.31,-50.39,-57.06,-55.63
2021/01/26 00:22:57+0000,-41.21,-48.28,-34.57,-47.12,-56.35,-56.11
2021/01/26 00:23:49+0000,-41.20,-48.96,-34.96,-51.97,-55.82,-55.97
2021/01/26 00:24:41+0000,-40.90,-49.08,-34.57,-49.74,-56.46,-55.78
2021/01/26 00:25:33+0000,-41.02,-47.03,-34.52,-51.20,-56.96,-55.06
2021/01/26 00:26:25+0000,-41.27,-48.30,-34.35,-47.93,-56.18,-55.73
2021/01/26 00:27:17+0000,-40.54,-47.96,-34.09,-49.31,-55.69,-55.55
2021/01/26 00:28:09+0000,-40.40,-48.64,-34.19,-49.57,-55.55,-55.46
2021/01/26 00:29:01+0000,-40.83,-47.62,-33.75,-47.79,-56.28,-54.87
2021/01/26 00:29:53+0000,-40.68,-47.69,-32.75,-49.10,-56.04,-55.19
2021/01/26 00:30:45+0000,-40.38,-47.71,-34.96,-49.42,-55.75,-54.23
2021/01/26 00:31:45+0000,-39.57,-45.94,-34.79,-47.97,-56.56,-55.32
2021/01/26 00:32:37+0000,-40.14,-48.61,-34.69,-48.94,-56.65,-55.62
2021/01/26 00:33:29+0000,-40.18,-47.97,-33.15,-49.31,-56.20,-54.95
2021/01/26 00:34:22+0000,-39.82,-47.32,-32.89,-48.00,-55.67,-55.63
2021/01/26 00:35:14+0000,-39.57,-47.55,-33.45,-48.43,-56.41,-55.22
2021/01/26 00:36:06+0000,-40.14,-50.68,-33.26,-49.40,-56.04,-55.35
2021/01/26 00:36:58+0000,-39.56,-49.00,-33.44,-48.82,-56.21,-55.53
2021/01/26 00:37:50+0000,-40.41,-47.29,-33.35,-52.17,-56.10,-54.76
2021/01/26 00:38:42+0000,-40.04,-47.28,-33.42,-49.06,-56.07,-55.29
2021/01/26 00:39:34+0000,-40.15,-47.32,-33.21,-51.38,-56.15,-55.73
2021/01/26 00:40:26+0000,-40.25,-47.12,-32.13,-49.30,-56.43,-54.91
2021/01/26 00:41:26+0000,-41.01,-48.13,-33.51,-48.25,-56.09,-55.20
2021/01/26 00:42:18+0000,-40.08,-48.00,-33.24,-50.10,-55.66,-54.86
2021/01/26 00:43:10+0000,-39.79,-47.97,-33.30,-48.50,-56.15,-55.40
2021/01/26 00:44:02+0000,-39.97,-45.85,-32.98,-49.09,-55.85,-55.37
2021/01/26 00:44:54+0000,-40.19,-45.97,-32.72,-49.72,-56.47,-55.14
2021/01/26 00:45:46+0000,-40.31,-46.46,-33.19,-49.77,-55.77,-55.49
2021/01/26 00:46:38+0000,-39.90,-48.75,-33.58,-48.50,-56.69,-55.38
2021/01/26 00:47:30+0000,-40.91,-46.45,-34.40,-50.67,-56.50,-55.42
2021/01/26 00:48:22+0000,-40.28,-49.45,-34.08,-49.60,-56.66,-54.80
2021/01/26 00:49:14+0000,-40.20,-47.67,-34.48,-49.45,-56.18,-54.92
2021/01/26 00:50:07+0000,-39.56,-48.73,-33.99,-50.02,-56.53,-55.31
2021/01/26 00:51:10+0000,-40.33,-45.58,-33.58,-49.03,-55.67,-55.46
2021/01/26 00:52:02+0000,-40.96,-48.27,-34.92,-50.50,-57.33,-55.24
2021/01/26 00:52:54+0000,-40.62,-48.40,-33.35,-49.34,-56.69,-55.15
2021/01/26 00:53:46+0000,-40.45,-46.86,-32.91,-50.36,-56.89,-55.42
2021/01/26 00:54:38+0000,-40.46,-49.14,-32.52,-50.52,-56.31,-55.53
2021/01/26 00:55:30+0000,-40.28,-46.85,-33.70,-51.00,-56.88,-55.24
2021/01/26 00:56:22+0000,-32.60,-49.94,-35.05,-50.76,-55.78,-55.13
2021/01/26 00:57:14+0000,-40.43,-45.94,-33.27,-51.29,-56.57,-55.41
2021/01/26 00:58:06+0000,-39.60,-47.51,-33.92,-52.24,-55.89,-55.94
2021/01/26 00:58:58+0000,-40.11,-46.78,-33.50,-50.51,-56.54,-55.20
2021/01/26 00:59:50+0000,-40.11,-46.52,-33.97,-51.59,-56.44,-55.27
2021/01/26 01:00:42+0000,-40.01,-47.37,-33.45,-51.59,-57.00,-55.49
2021/01/26 01:01:46+0000,-39.92,-45.19,-33.19,-51.64,-55.91,-55.77
2021/01/26 01:02:38+0000,-40.40,-46.82,-33.61,-51.32,-57.23,-55.08
2021/01/26 01:03:30+0000,-40.28,-46.20,-34.61,-49.96,-56.48,-55.33
2021/01/26 01:04:22+0000,-40.06,-47.00,-34.51,-51.60,-56.55,-55.20
2021/01/26 01:05:14+0000,-40.87,-45.32,-32.88,-51.43,-56.22,-55.72
2021/01/26 01:06:06+0000,-39.20,-49.23,-33.81,-51.02,-56.34,-55.48
2021/01/26 01:06:58+0000,-37.69,-45.47,-35.18,-50.54,-56.89,-55.16
2021/01/26 01:07:50+0000,-37.89,-49.29,-32.70,-51.48,-56.42,-55.32
2021/01/26 01:08:42+0000,-37.70,-44.94,-33.35,-50.39,-56.39,-53.09
2021/01/26 01:09:35+0000,-38.10,-46.89,-33.32,-51.21,-57.09,-54.00
2021/01/26 01:10:27+0000,-37.74,-47.71,-32.80,-51.48,-56.11,-54.19
2021/01/26 01:11:27+0000,-37.87,-45.50,-32.97,-50.85,-57.10,-55.11
2021/01/26 01:12:19+0000,-39.12,-48.15,-33.00,-51.95,-57.06,-53.91
2021/01/26 01:13:12+0000,-38.26,-48.23,-34.81,-40.70,-56.87,-54.04
2021/01/26 01:14:04+0000,-38.48,-44.19,-34.76,-51.77,-56.46,-54.86
2021/01/26 01:14:56+0000,-38.26,-43.00,-34.43,-50.82,-57.07,-54.99
2021/01/26 01:15:48+0000,-37.77,-47.72,-34.30,-49.61,-56.60,-54.39
2021/01/26 01:16:40+0000,-36.71,-46.39,-33.96,-45.54,-55.86,-54.80
2021/01/26 01:17:32+0000,-37.59,-43.14,-33.90,-51.94,-56.63,-54.41
2021/01/26 01:18:24+0000,-38.42,-44.76,-34.43,-50.62,-56.44,-54.91
2021/01/26 01:19:16+0000,-37.32,-45.69,-34.58,-46.17,-56.53,-55.19
2021/01/26 01:20:08+0000,-36.29,-47.89,-34.40,-46.21,-56.16,-54.84
2021/01/26 01:21:09+0000,-34.85,-46.92,-34.32,-47.78,-56.65,-54.97
2021/01/26 01:22:01+0000,-38.58,-45.63,-34.12,-50.41,-56.63,-54.85
2021/01/26 01:22:53+0000,-38.72,-46.86,-35.12,-49.73,-56.11,-54.52
2021/01/26 01:23:45+0000,-38.85,-46.49,-34.70,-47.02,-56.56,-55.02
2021/01/26 01:24:37+0000,-39.14,-50.08,-34.69,-48.56,-56.83,-54.51
2021/01/26 01:25:29+0000,-38.74,-43.44,-34.24,-50.92,-56.39,-55.24
2021/01/26 01:26:21+0000,-37.29,-49.66,-35.03,-51.11,-55.61,-55.75
2021/01/26 01:27:13+0000,-39.34,-46.82,-33.57,-50.37,-56.03,-54.62
2021/01/26 01:28:05+0000,-38.41,-39.96,-33.30,-51.45,-55.52,-53.86
2021/01/26 01:28:57+0000,-39.41,-42.26,-33.27,-51.27,-56.67,-55.37
2021/01/26 01:29:49+0000,-38.37,-45.58,-33.11,-51.05,-56.48,-55.22
2021/01/26 01:30:41+0000,-38.29,-45.27,-33.90,-48.93,-56.18,-55.26
2021/01/26 01:31:41+0000,-39.20,-46.12,-32.91,-50.36,-56.38,-55.08
2021/01/26 01:32:33+0000,-38.17,-43.48,-33.80,-51.62,-56.26,-55.76
2021/01/26 01:33:25+0000,-37.62,-43.85,-33.98,-46.29,-56.44,-54.78
2021/01/26 01:34:18+0000,-38.77,-45.09,-34.81,-51.42,-56.76,-55.14
2021/01/26 01:35:10+0000,-38.52,-45.73,-34.50,-51.11,-56.47,-55.35
2021/01/26 01:36:02+0000,-38.85,-42.04,-34.00,-48.91,-56.89,-54.92
2021/01/26 01:36:54+0000,-39.16,-46.65,-34.33,-49.55,-56.89,-54.92
2021/01/26 01:37:46+0000,-39.32,-46.43,-34.27,-49.90,-55.95,-55.65
2021/01/26 01:38:38+0000,-38.41,-49.79,-35.39,-49.82,-56.83,-55.05
2021/01/26 01:39:30+0000,-38.92,-46.74,-34.25,-51.89,-56.85,-55.67
2021/01/26 01:40:23+0000,-37.37,-49.68,-34.64,-51.77,-56.37,-55.64
2021/01/26 01:41:26+0000,-36.05,-44.76,-34.07,-50.24,-56.33,-54.13
2021/01/26 01:42:18+0000,-38.47,-47.42,-34.42,-51.65,-56.42,-54.47
2021/01/26 01:43:10+0000,-36.59,-46.24,-34.71,-51.04,-55.97,-54.28
2021/01/26 01:44:02+0000,-38.91,-43.75,-34.35,-51.08,-54.31,-54.06
2021/01/26 01:44:54+0000,-38.58,-45.48,-34.63,-51.44,-54.23,-54.51
2021/01/26 01:45:46+0000,-38.82,-45.29,-34.63,-50.23,-54.70,-53.70
2021/01/26 01:46:38+0000,-37.52,-49.83,-34.74,-51.38,-54.75,-54.15
2021/01/26 01:47:30+0000,-38.83,-45.03,-33.81,-51.46,-54.99,-54.31
2021/01/26 01:48:22+0000,-37.89,-50.30,-34.43,-50.81,-54.22,-54.59
2021/01/26 01:49:14+0000,-38.78,-46.26,-34.43,-49.97,-54.75,-54.80
2021/01/26 01:50:06+0000,-38.31,-50.29,-33.38,-50.40,-55.37,-54.45
2021/01/26 01:51:06+0000,-37.80,-50.43,-33.41,-50.30,-55.54,-54.09
2021/01/26 01:51:58+0000,-37.28,-43.58,-33.36,-51.50,-55.45,-54.80
2021/01/26 01:52:50+0000,-37.09,-46.17,-33.06,-51.65,-55.16,-52.93
2021/01/26 01:53:43+0000,-37.92,-45.56,-33.68,-50.16,-55.01,-51.92
2021/01/26 01:54:35+0000,-38.97,-43.94,-33.09,-51.70,-55.14,-52.04
2021/01/26 01:55:27+0000,-38.74,-47.26,-33.22,-51.49,-55.27,-52.89
2021/01/26 01:56:19+0000,-38.85,-45.79,-33.06,-51.56,-54.78,-53.01
2021/01/26 01:57:11+0000,-39.72,-46.47,-33.25,-50.24,-55.04,-52.78
2021/01/26 01:58:03+0000,-39.75,-44.63,-33.15,-50.41,-54.40,-51.99
2021/01/26 01:58:55+0000,-40.01,-43.79,-33.52,-49.43,-55.23,-51.82
2021/01/26 01:59:47+0000,-39.59,-45.28,-33.11,-48.39,-54.35,-51.61
2021/01/26 02:00:39+0000,-39.61,-46.97,-33.44,-46.94,-55.36,-52.05
2021/01/26 02:01:44+0000,-39.92,-45.93,-33.70,-50.16,-54.76,-52.99
2021/01/26 02:02:36+0000,-39.64,-49.48,-33.56,-47.81,-54.62,-52.46
2021/01/26 02:03:29+0000,-38.41,-47.17,-34.11,-49.11,-55.00,-53.82
2021/01/26 02:04:21+0000,-39.21,-50.84,-33.46,-50.15,-55.09,-54.02
2021/01/26 02:05:13+0000,-38.57,-45.44,-33.86,-50.78,-54.89,-53.74
2021/01/26 02:06:05+0000,-39.37,-50.02,-33.02,-50.12,-55.84,-53.62
2021/01/26 02:06:57+0000,-39.31,-42.81,-33.67,-50.97,-55.54,-53.61
2021/01/26 02:07:49+0000,-38.28,-43.79,-33.44,-52.06,-54.75,-53.54
2021/01/26 02:08:41+0000,-39.82,-44.64,-33.72,-49.00,-54.51,-53.39
2021/01/26 02:09:33+0000,-39.47,-43.15,-33.26,-51.44,-55.13,-53.45
2021/01/26 02:10:25+0000,-38.03,-44.54,-33.56,-49.18,-54.92,-52.75
2021/01/26 02:11:26+0000,-38.66,-41.80,-32.92,-50.02,-54.43,-53.76
2021/01/26 02:12:18+0000,-37.40,-46.58,-33.54,-50.95,-55.05,-54.39
2021/01/26 02:13:10+0000,-37.21,-45.75,-35.14,-50.65,-54.76,-53.92
2021/01/26 02:14:02+0000,-37.88,-41.55,-34.50,-51.03,-55.21,-53.86
2021/01/26 02:14:55+0000,-37.37,-43.75,-33.81,-51.18,-55.45,-53.73
2021/01/26 02:15:47+0000,-36.87,-45.61,-33.17,-48.33,-55.35,-53.76
2021/01/26 02:16:39+0000,-36.00,-46.50,-33.29,-47.28,-55.53,-54.24
2021/01/26 02:17:31+0000,-38.04,-42.21,-33.76,-50.01,-55.25,-53.20
2021/01/26 02:18:23+0000,-38.21,-44.62,-33.07,-50.33,-54.96,-54.55
2021/01/26 02:19:15+0000,-36.90,-45.11,-33.66,-49.39,-54.83,-53.65
2021/01/26 02:20:07+0000,-35.36,-49.22,-33.38,-49.58,-54.52,-53.19
2021/01/26 02:21:07+0000,-34.70,-47.11,-33.63,-49.49,-54.75,-53.99
2021/01/26 02:21:59+0000,-37.08,-45.53,-33.01,-51.05,-54.79,-53.77
2021/01/26 02:22:51+0000,-36.49,-49.44,-33.72,-50.70,-55.06,-53.87
2021/01/26 02:23:43+0000,-36.87,-46.71,-33.17,-50.18,-55.33,-53.20
2021/01/26 02:24:35+0000,-36.22,-49.25,-33.85,-50.90,-54.43,-53.88
2021/01/26 02:25:28+0000,-36.57,-45.50,-33.72,-50.79,-55.23,-54.65
2021/01/26 02:26:20+0000,-37.69,-45.50,-32.75,-50.75,-55.41,-54.90
2021/01/26 02:27:12+0000,-35.57,-45.67,-33.67,-50.89,-54.81,-53.34
2021/01/26 02:28:04+0000,-37.83,-45.55,-33.37,-51.03,-54.97,-53.71
2021/01/26 02:28:56+0000,-35.41,-45.70,-33.11,-51.31,-54.57,-53.57
2021/01/26 02:29:48+0000,-36.91,-46.11,-33.76,-50.99,-55.13,-53.11
2021/01/26 02:30:40+0000,-30.83,-44.91,-33.27,-51.11,-54.94,-53.53
2021/01/26 02:31:40+0000,-33.66,-45.16,-33.19,-50.68,-54.86,-53.73
2021/01/26 02:32:32+0000,-37.01,-45.55,-33.72,-50.59,-55.15,-54.31
2021/01/26 02:33:24+0000,-37.31,-47.05,-33.83,-50.73,-55.20,-54.43
2021/01/26 02:34:16+0000,-35.43,-45.67,-34.13,-51.07,-55.09,-53.91
2021/01/26 02:35:08+0000,-34.46,-47.23,-33.59,-51.02,-55.25,-53.23
2021/01/26 02:36:00+0000,-37.34,-46.04,-33.35,-50.06,-55.55,-53.83
2021/01/26 02:36:52+0000,-35.95,-48.73,-33.64,-50.94,-54.64,-54.05
2021/01/26 02:37:44+0000,-38.34,-44.48,-33.03,-50.86,-54.94,-53.65
2021/01/26 02:38:36+0000,-37.09,-50.32,-33.56,-50.51,-55.24,-53.30
2021/01/26 02:39:28+0000,-38.64,-45.76,-34.02,-50.61,-55.33,-53.89
2021/01/26 02:40:21+0000,-36.79,-49.91,-33.38,-51.07,-54.03,-53.41
2021/01/26 02:41:20+0000,-37.74,-46.63,-33.18,-51.05,-54.06,-52.89
2021/01/26 02:42:12+0000,-28.21,-46.19,-33.36,-51.02,-54.73,-52.92
2021/01/26 02:43:04+0000,-34.29,-47.46,-33.21,-50.86,-55.23,-53.38
2021/01/26 02:43:56+0000,-37.98,-47.73,-33.76,-50.64,-55.03,-53.55
2021/01/26 02:44:48+0000,-37.83,-45.14,-33.32,-50.86,-54.96,-53.41
2021/01/26 02:45:40+0000,-36.84,-45.67,-33.43,-51.23,-55.33,-53.23
2021/01/26 02:46:32+0000,-36.97,-47.24,-33.90,-51.34,-54.86,-53.24
2021/01/26 02:47:24+0000,-37.40,-47.16,-33.76,-52.06,-54.85,-53.59
2021/01/26 02:48:16+0000,-36.83,-46.02,-33.66,-50.99,-54.63,-53.31
2021/01/26 02:49:08+0000,-36.80,-49.56,-33.32,-50.93,-55.20,-52.73
2021/01/26 02:50:01+0000,-37.24,-46.40,-33.71,-51.90,-54.61,-53.72
2021/01/26 02:51:01+0000,-37.54,-44.94,-33.54,-51.16,-54.40,-54.25
2021/01/26 02:51:53+0000,-37.42,-49.78,-33.44,-51.43,-55.28,-54.34
2021/01/26 02:52:45+0000,-36.31,-46.85,-34.40,-50.42,-55.04,-52.93
2021/01/26 02:53:37+0000,-36.72,-50.31,-34.25,-51.58,-55.30,-53.33
2021/01/26 02:54:29+0000,-36.22,-44.27,-33.64,-51.25,-54.44,-53.57
2021/01/26 02:55:21+0000,-31.41,-47.23,-34.09,-51.53,-54.81,-54.29
2021/01/26 02:56:13+0000,-35.67,-45.33,-33.91,-51.15,-54.65,-53.70
2021/01/26 02:57:05+0000,-36.41,-46.72,-33.79,-51.45,-54.39,-53.57
2021/01/26 02:57:57+0000,-37.70,-44.68,-33.86,-51.47,-55.36,-54.86
2021/01/26 02:58:49+0000,-35.48,-47.04,-33.39,-51.55,-54.61,-54.20
2021/01/26 02:59:42+0000,-35.68,-47.70,-33.62,-50.78,-54.95,-54.02
2021/01/26 03:00:34+0000,-35.54,-44.41,-33.61,-50.68,-54.74,-53.91
2021/01/26 03:01:34+0000,-36.06,-48.47,-33.59,-51.48,-54.64,-53.83
2021/01/26 03:02:27+0000,-36.14,-45.71,-33.81,-51.07,-54.31,-54.23
2021/01/26 03:03:19+0000,-36.61,-45.07,-33.85,-50.86,-55.29,-53.47
2021/01/26 03:04:11+0000,-36.24,-46.55,-33.62,-51.08,-54.51,-53.43
2021/01/26 03:05:03+0000,-35.56,-45.45,-32.98,-50.63,-54.38,-53.33
2021/01/26 03:05:55+0000,-35.55,-45.33,-33.64,-50.88,-55.05,-53.06
2021/01/26 03:06:47+0000,-35.91,-44.87,-34.33,-50.39,-54.49,-52.50
2021/01/26 03:07:39+0000,-35.62,-43.96,-33.85,-51.13,-55.40,-53.50
2021/01/26 03:08:31+0000,-35.90,-45.40,-33.59,-51.00,-54.60,-53.95
2021/01/26 03:09:23+0000,-35.67,-47.23,-34.12,-50.85,-54.56,-53.89
2021/01/26 03:10:15+0000,-37.82,-45.77,-33.81,-50.27,-54.56,-54.15
2021/01/26 03:11:15+0000,-36.19,-45.19,-33.95,-51.35,-54.60,-54.92
2021/01/26 03:12:07+0000,-36.59,-42.46,-33.18,-50.33,-55.47,-54.23
2021/01/26 03:12:59+0000,-36.15,-46.53,-33.68,-50.82,-55.02,-54.76
2021/01/26 03:13:51+0000,-34.83,-49.40,-33.89,-51.20,-54.85,-54.05
2021/01/26 03:14:43+0000,-36.56,-44.00,-34.09,-50.92,-55.07,-53.79
2021/01/26 03:15:35+0000,-36.08,-49.58,-33.80,-50.18,-54.69,-54.77
2021/01/26 03:16:27+0000,-35.28,-46.68,-33.95,-50.56,-55.20,-54.57
2021/01/26 03:17:19+0000,-36.23,-43.42,-33.37,-50.88,-54.53,-54.43
2021/01/26 03:18:11+0000,-36.50,-43.92,-33.93,-50.93,-55.36,-54.23
2021/01/26 03:19:03+0000,-36.11,-47.21,-33.45,-51.61,-54.43,-53.94
2021/01/26 03:19:56+0000,-37.21,-47.04,-33.59,-51.10,-54.39,-53.47
2021/01/26 03:20:48+0000,-36.32,-43.58,-34.53,-51.04,-54.42,-53.26
2021/01/26 03:21:52+0000,-35.49,-47.91,-33.89,-45.56,-54.88,-54.66
2021/01/26 03:22:44+0000,-35.43,-43.19,-35.10,-46.01,-54.98,-53.79
2021/01/26 03:23:36+0000,-34.19,-49.02,-35.80,-45.82,-54.65,-54.72
2021/01/26 03:24:28+0000,-35.86,-47.43,-33.92,-44.96,-55.29,-54.74
2021/01/26 03:25:20+0000,-37.52,-47.13,-33.73,-45.99,-55.09,-54.78
2021/01/26 03:26:12+0000,-35.09,-46.43,-33.83,-45.38,-54.68,-54.69
2021/01/26 03:27:04+0000,-35.35,-47.07,-34.08,-44.47,-54.77,-54.10
2021/01/26 03:27:56+0000,-37.01,-45.79,-33.91,-44.36,-55.19,-54.42
2021/01/26 03:28:48+0000,-35.79,-46.55,-34.22,-45.48,-54.81,-54.72
2021/01/26 03:29:41+0000,-34.01,-46.68,-33.56,-44.25,-55.40,-54.68
2021/01/26 03:30:33+0000,-33.01,-46.39,-33.78,-43.80,-54.59,-53.90
2021/01/26 03:31:36+0000,-36.26,-48.44,-33.37,-44.98,-55.39,-54.14
2021/01/26 03:32:28+0000,-36.15,-46.21,-34.21,-44.77,-54.87,-54.90
2021/01/26 03:33:20+0000,-35.95,-48.15,-33.06,-44.98,-54.18,-54.01
2021/01/26 03:34:12+0000,-34.69,-47.49,-34.27,-45.02,-55.03,-54.19
2021/01/26 03:35:04+0000,-33.77,-46.08,-34.19,-44.49,-55.09,-53.52
2021/01/26 03:35:56+0000,-35.56,-46.38,-33.62,-44.20,-54.94,-54.05
2021/01/26 03:36:49+0000,-35.92,-43.49,-33.67,-43.74,-54.61,-53.14
2021/01/26 03:37:41+0000,-33.47,-44.29,-33.87,-42.84,-55.08,-53.57
2021/01/26 03:38:33+0000,-34.50,-46.77,-33.63,-42.00,-55.28,-53.03
2021/01/26 03:39:25+0000,-33.73,-46.39,-33.70,-42.65,-55.53,-52.97
2021/01/26 03:40:17+0000,-35.41,-43.99,-33.70,-43.27,-55.37,-54.23
2021/01/26 03:41:18+0000,-33.71,-44.16,-33.88,-43.77,-55.03,-53.23
2021/01/26 03:42:10+0000,-33.66,-44.99,-33.43,-43.35,-54.40,-53.92
2021/01/26 03:43:02+0000,-35.17,-48.02,-33.06,-44.28,-54.88,-54.14
2021/01/26 03:43:54+0000,-34.36,-46.63,-33.57,-43.49,-55.30,-54.80
2021/01/26 03:44:46+0000,-35.34,-43.50,-32.90,-43.52,-54.07,-53.69
2021/01/26 03:45:38+0000,-33.53,-47.93,-33.79,-43.81,-54.84,-53.62
2021/01/26 03:46:30+0000,-35.26,-46.97,-33.62,-43.81,-54.86,-53.82
2021/01/26 03:47:22+0000,-33.95,-49.06,-35.19,-44.79,-54.78,-54.17
2021/01/26 03:48:14+0000,-34.45,-46.80,-35.07,-44.29,-54.88,-53.87
2021/01/26 03:49:06+0000,-34.17,-48.30,-35.27,-43.75,-54.20,-54.09
2021/01/26 03:49:59+0000,-33.87,-47.37,-34.98,-43.23,-54.15,-53.19
2021/01/26 03:50:51+0000,-34.36,-46.43,-35.23,-42.75,-55.10,-53.07
2021/01/26 03:51:54+0000,-34.03,-47.48,-34.89,-42.99,-54.73,-53.66
2021/01/26 03:52:46+0000,-34.57,-46.81,-35.24,-43.85,-54.13,-53.78
2021/01/26 03:53:38+0000,-32.21,-48.10,-34.56,-43.18,-54.88,-53.86
2021/01/26 03:54:30+0000,-36.11,-47.25,-35.50,-43.30,-54.63,-53.38
2021/01/26 03:55:22+0000,-33.63,-48.52,-35.00,-43.53,-55.05,-52.97
2021/01/26 03:56:15+0000,-34.41,-48.33,-34.95,-43.56,-54.79,-53.74
2021/01/26 03:57:07+0000,-36.96,-49.66,-35.00,-50.73,-55.23,-53.48
2021/01/26 03:57:59+0000,-37.29,-48.74,-35.07,-50.67,-54.89,-52.96
2021/01/26 03:58:51+0000,-37.00,-48.62,-35.32,-51.20,-55.18,-53.82
2021/01/26 03:59:43+0000,-36.63,-48.09,-35.03,-50.54,-55.31,-51.16
2021/01/26 04:00:35+0000,-37.35,-48.47,-35.11,-50.49,-54.98,-54.16
2021/01/26 04:01:36+0000,-36.78,-49.41,-35.40,-50.45,-54.73,-54.09
2021/01/26 04:02:28+0000,-37.21,-48.63,-35.23,-51.19,-54.97,-54.00
2021/01/26 04:03:20+0000,-36.10,-49.54,-35.28,-50.62,-55.02,-53.84
2021/01/26 04:04:12+0000,-36.56,-48.57,-35.38,-50.52,-55.18,-53.73
2021/01/26 04:05:04+0000,-36.65,-49.04,-34.80,-50.79,-54.81,-53.41
2021/01/26 04:05:56+0000,-33.46,-47.72,-34.88,-49.83,-54.48,-54.34
2021/01/26 04:06:49+0000,-35.04,-45.79,-35.30,-50.41,-55.40,-53.49
2021/01/26 04:07:41+0000,-35.81,-43.65,-35.21,-51.17,-54.80,-53.43
2021/01/26 04:08:33+0000,-35.92,-45.89,-34.88,-50.65,-54.92,-53.45
2021/01/26 04:09:25+0000,-34.29,-45.32,-35.11,-51.05,-55.10,-53.97
2021/01/26 04:10:17+0000,-34.11,-45.04,-35.16,-50.99,-55.31,-52.97
2021/01/26 04:11:18+0000,-36.02,-45.09,-35.38,-51.22,-54.68,-53.25
2021/01/26 04:12:10+0000,-34.91,-45.62,-34.99,-51.59,-55.00,-53.47
2021/01/26 04:13:02+0000,-36.36,-45.27,-34.94,-50.41,-55.34,-53.24
2021/01/26 04:13:54+0000,-36.44,-46.04,-35.83,-51.45,-54.89,-53.25
2021/01/26 04:14:46+0000,-35.87,-45.59,-34.83,-50.52,-54.54,-54.34
2021/01/26 04:15:38+0000,-36.87,-44.50,-34.93,-50.54,-54.92,-53.94
2021/01/26 04:16:30+0000,-36.89,-46.35,-35.85,-50.76,-54.78,-53.49
2021/01/26 04:17:22+0000,-35.75,-45.62,-35.07,-51.60,-55.25,-54.38
2021/01/26 04:18:14+0000,-37.22,-45.36,-35.62,-51.24,-55.01,-53.86
2021/01/26 04:19:06+0000,-36.65,-47.41,-35.34,-51.30,-54.46,-54.03
2021/01/26 04:19:58+0000,-36.71,-44.63,-34.84,-51.64,-55.01,-53.92
2021/01/26 04:20:50+0000,-32.05,-46.54,-35.12,-51.28,-55.13,-53.86
2021/01/26 04:21:52+0000,-36.21,-46.23,-34.78,-50.28,-55.10,-53.70
2021/01/26 04:22:44+0000,-37.95,-45.01,-35.18,-51.80,-55.31,-54.50
2021/01/26 04:23:37+0000,-34.64,-46.51,-34.91,-51.66,-55.06,-53.86
2021/01/26 04:24:29+0000,-36.43,-45.30,-35.12,-51.24,-55.01,-53.72
2021/01/26 04:25:21+0000,-36.23,-45.97,-35.11,-51.08,-54.78,-54.29
2021/01/26 04:26:13+0000,-35.94,-45.09,-34.68,-51.88,-55.39,-53.55
2021/01/26 04:27:05+0000,-35.79,-44.75,-35.08,-52.19,-54.54,-53.71
2021/01/26 04:27:57+0000,-36.43,-44.78,-35.03,-51.63,-55.16,-53.37
2021/01/26 04:28:49+0000,-35.14,-45.33,-35.25,-51.23,-55.07,-54.33
2021/01/26 04:29:41+0000,-32.65,-43.62,-35.24,-51.63,-55.25,-54.07
2021/01/26 04:30:33+0000,-35.26,-44.03,-35.05,-51.44,-55.13,-53.55
2021/01/26 04:31:34+0000,-34.01,-44.19,-35.42,-51.96,-54.99,-53.59
2021/01/26 04:32:26+0000,-34.74,-44.19,-34.86,-51.69,-54.77,-53.83
2021/01/26 04:33:18+0000,-35.78,-43.57,-35.16,-51.13,-54.93,-54.11
2021/01/26 04:34:10+0000,-34.21,-44.12,-35.27,-51.73,-55.14,-54.24
2021/01/26 04:35:02+0000,-33.59,-45.30,-35.16,-52.15,-55.67,-55.74
2021/01/26 04:35:54+0000,-34.73,-45.30,-35.25,-51.96,-55.27,-55.14
2021/01/26 04:36:46+0000,-35.82,-46.14,-35.05,-52.00,-54.98,-55.20
2021/01/26 04:37:38+0000,-34.64,-45.94,-35.51,-51.88,-55.35,-55.77
2021/01/26 04:38:30+0000,-34.56,-45.25,-34.75,-51.38,-55.74,-56.16
2021/01/26 04:39:22+0000,-36.52,-46.21,-34.99,-51.95,-55.21,-55.48
2021/01/26 04:40:15+0000,-35.81,-44.49,-34.94,-51.08,-54.47,-55.48
2021/01/26 04:41:14+0000,-33.97,-45.56,-34.93,-50.93,-55.51,-56.24
2021/01/26 04:42:06+0000,-35.33,-47.12,-34.34,-51.41,-55.25,-55.60
2021/01/26 04:42:58+0000,-36.36,-45.97,-34.34,-52.44,-55.00,-55.60
2021/01/26 04:43:50+0000,-36.83,-45.11,-34.65,-51.98,-55.12,-55.86
2021/01/26 04:44:42+0000,-34.89,-46.01,-34.29,-51.77,-55.73,-56.11